[[{"header":{"parameterUnit":"m.s-1","parameterCategory":1,"la1":30.2991,"la2":30.254,"lo1":-89.0895,"lo2":-89.0444,"dy":0.0017,"dx":0.0017,"nx":28,"ny":28,"refTime":"2025-04-30T09:00:00:Z","depth":0,"parameterNumber":2,"parameterNumberName":"U-component_of_WINDS"},"data":[0,0,0,0,0,0,0,0,0,0,0,0,0,0,0,0,0,0,0,0,0,0,0,0,0,0,0,0,0,0,0,0,0,0,0,0,0,0,0,0,0,0,0,0,0,0,0,0,0,0,0,0,0,0,0,0,0,0,-3.8925,-3.8925,0,-3.893,-3.893,-3.893,-3.8845,-3.8843,-3.884,-3.8838,-3.8842,-3.8844,-3.8847,0,0,0,0,0,0,0,0,0,0,0,0,0,-3.8843,-3.8845,-3.8925,-3.8925,-3.8925,-3.893,-3.893,-3.893,-3.8845,-3.8842,-3.884,-3.8837,-3.8842,-3.8844,-3.8847,0,0,0,0,0,0,0,0,0,0,0,0,0,-3.8866,-3.8846,-3.8925,-3.8884,-3.888,-3.893,-3.893,-3.893,-3.8846,-3.8842,-3.8839,-3.8836,-3.8841,-3.8844,-3.8847,-3.8937,0,0,-3.8858,-3.8859,0,0,0,0,0,0,0,0,-3.8865,-3.8869,-3.889,-3.8886,-3.8882,-3.8883,-3.8902,-3.8932,-3.8847,-3.8859,-3.8838,-3.8834,-3.8859,-3.886,-3.8869,-3.8937,-3.8937,-3.8858,-3.886,-3.8861,-3.8862,0,0,0,0,0,0,0,-3.8864,-3.8869,-3.8927,-3.889,-3.8886,-3.8865,-3.8864,-3.8907,-3.8878,-3.8857,-3.8851,-3.8853,-3.8856,-3.8866,-3.8868,-3.8937,-3.8858,-3.8861,-3.8863,-3.8864,-3.9079,-3.9082,0,0,0,0,0,0,-3.8868,-3.8868,-3.8927,-3.8927,-3.8865,-3.8869,-3.8868,-3.8886,-3.8877,-3.8872,-3.8856,-3.8849,-3.8862,-3.8864,-3.8868,-3.8971,-3.8861,-3.8864,-3.8866,-3.9075,-3.908,-3.9084,0,0,0,0,0,0,-3.8866,-3.8874,-3.8926,-3.8896,-3.8901,-3.8874,-3.8895,-3.8888,-3.8898,-3.8876,-3.887,-3.8871,-3.8859,-3.8863,-3.892,-3.897,-3.8866,-3.8869,-3.9071,-3.9077,-3.9082,-3.9179,0,0,0,0,0,0,-3.8864,-3.8874,-3.8907,-3.8897,-3.8903,-3.8979,-3.8898,-3.8891,-3.8904,-3.8895,-3.8889,-3.8885,-3.8857,-3.8916,-3.8924,-3.8973,-3.8872,-3.9066,-3.9073,-3.908,-3.9171,-3.9187,-3.9201,0,0,0,0,0,-3.8862,-3.8934,-3.8909,-3.8917,-3.8944,-3.8982,-3.8985,-3.8952,-3.8908,-3.8942,-3.8928,-3.8885,-3.8964,-3.8922,-3.893,-3.8982,-3.9063,-3.9071,-3.9079,-3.9165,-3.9184,-3.9201,0,0,0,0,0,0,-3.895,-3.8932,-3.8904,-3.8976,-3.8981,-3.8967,-3.9008,-3.8973,-3.8991,-3.8982,-3.8939,-3.8939,-3.9002,-3.8998,-3.8952,-3.9068,-3.9006,-3.9016,-3.9068,-3.9086,-3.9101,-3.91,-3.8874,0,0,0,0,0,-3.8979,-3.9011,-3.8993,-3.9058,-3.9062,-3.9036,-3.9051,-3.9025,-3.9028,-3.903,-3.902,-3.9025,-3.9051,-3.9069,-3.9091,-3.9171,-3.9168,-3.9211,-3.9225,-3.9238,-3.9247,-3.9288,-3.9306,-3.9111,-3.9111,-3.9111,0,0,-3.9037,-3.9031,-3.9053,-3.9076,-3.9077,-3.9111,-3.9038,-3.9077,-3.9101,-3.9035,-3.9088,-3.9082,-3.9085,-3.9153,-3.9183,-3.9151,-3.93,-3.9248,-3.9258,-3.926,-3.9298,-3.9317,-3.9333,-3.9116,-3.9115,-3.9115,0,0,-3.9159,-3.9159,-3.9212,-3.9215,-3.9218,-3.9199,-3.9213,-3.9205,-3.9198,-3.9251,-3.9202,-3.9231,-3.9277,-3.928,-3.9288,-3.9415,-3.9375,-3.9424,-3.95,-3.9541,-3.9557,-3.957,-3.9614,-3.963,-3.9433,-3.9433,-3.9433,0,-3.9231,-3.928,-3.9244,-3.9287,-3.9298,-3.9241,-3.9295,-3.9299,-3.9309,-3.9318,-3.9283,-3.934,-3.9338,-3.9406,-3.9437,-3.9446,-3.9459,-3.9423,-3.9557,-3.957,-3.9582,-3.9624,-3.964,-3.9439,-3.9438,-3.9437,-3.9437,0,-3.9367,-3.9403,-3.9446,-3.9457,-3.9473,-3.9522,-3.9493,-3.9514,-3.9488,-3.9473,-3.9528,-3.9524,-3.9545,-3.9559,-3.9534,-3.9625,-3.9605,-3.9565,-3.9501,-3.9607,-3.9645,-3.9661,-3.9447,-3.9445,-3.9443,-3.9442,0,0,-3.9544,-3.9536,-3.9552,-3.9557,-3.9556,-3.9582,-3.9629,-3.9649,-3.9667,-3.9677,-3.9714,-3.9755,-3.9717,-3.9727,-3.9701,-3.9738,-3.9837,-3.9692,-3.9692,-3.9718,-3.9936,-3.9965,-3.9984,-3.9812,-3.9815,-3.9817,-3.9935,0,-3.9662,-3.9739,-3.9709,-3.9789,-3.9821,-3.9768,-3.9808,-3.9812,-3.9801,-3.9826,-3.9813,-3.9842,-3.9791,-3.9796,-3.983,-3.9817,-3.9879,-3.9809,-3.9845,-3.9846,-3.9843,-4.0004,-4.0034,-4.0146,-3.995,-3.9952,-3.9954,0,-3.9809,-3.9825,-3.9908,-3.9902,-3.9914,-3.9951,-3.9967,-3.9993,-3.9996,-3.9985,-3.9997,-3.9964,-4.0008,-3.9947,-4.0007,-3.996,-3.9973,-3.997,-3.9973,-3.9973,-3.9905,-4.0007,-4.0181,-4.0197,-3.9977,-3.9975,-3.9974,0,-3.9928,-3.997,-4.0025,-4.0031,-4.0026,-4.0052,-4.0052,-4.0052,-4.0067,-4.0082,-4.009,-4.0111,-4.0121,-4.0138,-4.0111,-4.0069,-4.0175,-4.0112,-4.0167,-4.0167,-4.0189,-4.0188,-4.0366,-4.0202,-4.0201,-4.0201,-4.0201,0,-4.0062,-4.0114,-4.0078,-4.0112,-4.0169,-4.0135,-4.0193,-4.0186,-4.0187,-4.0219,-4.0175,-4.0205,-4.0169,-4.0196,-4.0176,-4.0229,-4.0234,-4.0226,-4.022,-4.0229,-4.023,-4.0235,-4.0226,-4.0205,-4.0205,-4.0204,-4.0203,0,-4.0203,-4.0181,-4.0237,-4.0229,-4.0228,-4.027,-4.0262,-4.0293,-4.0279,-4.0319,-4.0327,-4.0305,-4.0335,-4.031,-4.0339,-4.0326,-4.0395,-4.0379,-4.0394,-4.0388,-4.0444,-4.0439,-4.063,-4.0653,-4.0476,-4.0478,-4.0479,0,-4.0289,-4.0328,-4.0324,-4.0342,-4.0344,-4.0373,-4.0388,-4.0356,-4.0373,-4.0381,-4.0411,-4.0437,-4.0456,-4.0506,-4.0492,-4.0514,-4.0497,-4.0563,-4.05,-4.0508,-4.0496,-4.0493,-4.0497,-4.0575,-4.0577,-4.0579,-4.058,0,-4.0443,-4.0431,-4.0454,-4.0473,-4.0492,-4.0506,-4.0516,-4.0534,-4.0501,-4.0523,-4.0553,-4.0568,-4.0597,-4.0624,-4.0641,-4.064,-4.0605,-4.0601,-4.0614,-4.0623,-4.0629,-4.0625,-4.0427,-4.0596,-4.0594,-4.0593,-4.0592,-4.0592,-4.0558,-4.0591,-4.0593,-4.062,-4.0624,-4.0635,-4.0664,-4.0654,-4.0678,-4.0699,-4.068,-4.0716,-4.0719,-4.0739,-4.0743,-4.077,-4.0743,-4.0763,-4.0767,-4.0772,-4.078,-4.0627,-4.0773,-4.0773,-4.0773,-4.0772,-4.0772,0,-4.0709,-4.0708,-4.0734,-4.075,-4.0771,-4.0737,-4.0747,-4.0767,-4.0799,-4.0805,-4.0825,-4.086,-4.0885,-4.0875,-4.0897,-4.0921,-4.0905,-4.0928,-4.0925,-4.0925,-4.0804,-4.0789,-4.094,-4.094,-4.094,-4.094,-4.094,-4.094,-4.079,-4.0843,-4.0831,-4.0885,-4.0884,-4.0918,-4.0927,-4.0937,-4.0941,-4.0982,-4.1003,-4.0996,-4.0995,-4.1017,-4.1039,-4.1036,-4.1045,-4.1073,-4.1064,-4.095,-4.0933,-4.0917,-4.0903,-4.1076,-4.1076,-4.1182,-4.1183,-4.1184]},{"header":{"parameterUnit":"m.s-1","parameterCategory":1,"la1":30.2991,"la2":30.254,"lo1":-89.0895,"lo2":-89.0444,"dy":0.0017,"dx":0.0017,"nx":28,"ny":28,"refTime":"2025-04-30T09:00:00:Z","depth":0,"parameterNumber":3,"parameterNumberName":"V-component_of_WINDS"},"data":[0,0,0,0,0,0,0,0,0,0,0,0,0,0,0,0,0,0,0,0,0,0,0,0,0,0,0,0,0,0,0,0,0,0,0,0,0,0,0,0,0,0,0,0,0,0,0,0,0,0,0,0,0,0,0,0,0,0,4.7422,4.7422,0,4.7441,4.7441,4.7442,4.7471,4.7472,4.7472,4.7473,4.7488,4.7488,4.7488,0,0,0,0,0,0,0,0,0,0,0,0,0,4.7407,4.7407,4.7422,4.7422,4.7422,4.7441,4.7441,4.7442,4.7471,4.7472,4.7473,4.7473,4.7488,4.7488,4.7488,0,0,0,0,0,0,0,0,0,0,0,0,0,4.7418,4.7407,4.7422,4.7439,4.7441,4.7441,4.7441,4.7442,4.7471,4.7472,4.7473,4.7474,4.7488,4.7488,4.7488,4.7471,0,0,4.7487,4.7487,0,0,0,0,0,0,0,0,4.7418,4.7419,4.7436,4.7438,4.744,4.7455,4.7442,4.7451,4.7471,4.746,4.7473,4.7474,4.7476,4.7477,4.7479,4.7471,4.7472,4.7487,4.7487,4.7487,4.7487,0,0,0,0,0,0,0,4.7417,4.7418,4.7429,4.7437,4.7439,4.7445,4.7448,4.7444,4.7463,4.7461,4.7463,4.7465,4.7477,4.7479,4.7479,4.7472,4.7487,4.7487,4.7487,4.7487,4.7453,4.7452,0,0,0,0,0,0,4.7414,4.7417,4.7429,4.743,4.7431,4.7445,4.7448,4.7449,4.7463,4.7466,4.7464,4.7466,4.7479,4.7479,4.748,4.7461,4.7487,4.7487,4.7487,4.7454,4.7453,4.7452,0,0,0,0,0,0,4.7413,4.7415,4.7428,4.7424,4.7426,4.7444,4.7446,4.7449,4.7451,4.7466,4.7469,4.7463,4.7479,4.748,4.7473,4.7462,4.7487,4.7487,4.7455,4.7453,4.7452,4.7424,0,0,0,0,0,0,4.7413,4.7414,4.7408,4.7424,4.7426,4.7422,4.7445,4.7449,4.7451,4.7454,4.7465,4.7468,4.748,4.7473,4.7473,4.7463,4.7487,4.7456,4.7454,4.7453,4.7426,4.7422,4.7418,0,0,0,0,0,4.7412,4.7398,4.7408,4.7409,4.742,4.7421,4.7422,4.7438,4.745,4.7444,4.7454,4.7467,4.7464,4.7473,4.7472,4.7462,4.7457,4.7455,4.7453,4.7427,4.7422,4.7418,0,0,0,0,0,0,4.7379,4.7401,4.7412,4.7402,4.741,4.7426,4.7419,4.7432,4.7435,4.7438,4.7456,4.7458,4.7449,4.7455,4.7464,4.7446,4.7462,4.746,4.7443,4.7438,4.7435,4.7433,4.7487,0,0,0,0,0,4.7371,4.7371,4.739,4.738,4.7383,4.7401,4.7402,4.7414,4.7421,4.7424,4.7433,4.7439,4.744,4.7439,4.744,4.7427,4.743,4.742,4.7416,4.7413,4.7411,4.7405,4.74,4.7446,4.7446,4.7446,0,0,4.7353,4.7365,4.7364,4.7374,4.7381,4.738,4.7403,4.7401,4.74,4.7423,4.7418,4.7425,4.7433,4.7423,4.7419,4.7428,4.7399,4.741,4.7408,4.7407,4.7402,4.7398,4.7394,4.7445,4.7445,4.7445,0,0,4.7322,4.7331,4.7324,4.7332,4.7343,4.7355,4.7354,4.7368,4.7375,4.737,4.7388,4.7387,4.7387,4.7392,4.7395,4.7367,4.738,4.7367,4.7347,4.7341,4.7338,4.7334,4.7325,4.7321,4.7365,4.7365,4.7365,0,4.7298,4.7299,4.7319,4.7316,4.732,4.7343,4.7336,4.7342,4.7352,4.7354,4.7364,4.7366,4.7372,4.7365,4.7358,4.7359,4.7358,4.7365,4.7337,4.7334,4.7331,4.7322,4.7319,4.7363,4.7363,4.7364,4.7364,0,4.727,4.727,4.7264,4.7276,4.7279,4.7274,4.7292,4.7292,4.7304,4.7315,4.731,4.732,4.7324,4.7323,4.7333,4.7317,4.7322,4.7334,4.735,4.7325,4.7317,4.7314,4.7361,4.7362,4.7362,4.7362,0,0,4.7216,4.7241,4.7238,4.7245,4.726,4.726,4.7256,4.7262,4.7262,4.7269,4.7266,4.7267,4.7279,4.7282,4.7293,4.7288,4.7267,4.7301,4.7302,4.7295,4.7249,4.724,4.7236,4.7276,4.7275,4.7274,4.7249,0,4.7188,4.7185,4.7203,4.7194,4.7195,4.7218,4.7215,4.7223,4.7234,4.7235,4.7245,4.7246,4.7262,4.7264,4.726,4.727,4.7258,4.7272,4.7272,4.7272,4.727,4.7232,4.7222,4.7197,4.7246,4.7245,4.7245,0,4.7153,4.7161,4.7153,4.717,4.7171,4.7168,4.7176,4.7177,4.7187,4.7195,4.72,4.7214,4.7211,4.7227,4.7223,4.7233,4.7234,4.7239,4.7239,4.7239,4.7257,4.7231,4.7189,4.7186,4.724,4.724,4.7241,0,4.7116,4.7123,4.712,4.7125,4.7145,4.7142,4.715,4.7162,4.7164,4.717,4.7173,4.7177,4.718,4.7183,4.7198,4.7209,4.7193,4.721,4.7198,4.7198,4.7193,4.7194,4.7152,4.7194,4.7194,4.7194,4.7195,0,4.7082,4.7076,4.7104,4.7102,4.7096,4.7117,4.7111,4.7121,4.7131,4.713,4.715,4.7149,4.7169,4.717,4.7182,4.7177,4.7178,4.7184,4.7187,4.7182,4.7181,4.7183,4.7185,4.7193,4.7194,4.7194,4.7194,0,4.7038,4.7057,4.7055,4.7075,4.708,4.7075,4.7091,4.709,4.7102,4.7101,4.7102,4.7121,4.7123,4.7139,4.7144,4.7152,4.7143,4.7149,4.714,4.7142,4.713,4.7131,4.7087,4.7083,4.7128,4.7128,4.7128,0,4.7015,4.7012,4.7032,4.7035,4.7042,4.7045,4.7049,4.7069,4.7072,4.7085,4.7081,4.7086,4.7091,4.7093,4.7107,4.7111,4.7118,4.7102,4.7118,4.7114,4.7118,4.7118,4.7118,4.7098,4.7098,4.7097,4.7097,0,4.6973,4.6983,4.6988,4.6997,4.7002,4.7009,4.7018,4.7018,4.7041,4.7043,4.7047,4.7051,4.7058,4.7062,4.7069,4.7076,4.709,4.7092,4.709,4.7084,4.7079,4.7082,4.7131,4.7093,4.7093,4.7093,4.7094,4.7094,4.6939,4.6938,4.6953,4.6958,4.6968,4.6976,4.6976,4.6989,4.6993,4.7002,4.7013,4.7015,4.7027,4.7038,4.7044,4.7046,4.7054,4.705,4.7049,4.7048,4.7046,4.708,4.7047,4.7047,4.7047,4.7047,4.7047,0,4.6898,4.6909,4.6915,4.6927,4.6932,4.6947,4.6958,4.696,4.6963,4.6973,4.6978,4.6982,4.6987,4.7001,4.7007,4.7005,4.7012,4.7006,4.7006,4.7008,4.7038,4.7039,4.7001,4.7001,4.7001,4.7001,4.7001,4.7001,4.6877,4.6876,4.6888,4.6892,4.6902,4.6906,4.6911,4.6919,4.6927,4.6932,4.6937,4.6947,4.6959,4.6966,4.6971,4.6975,4.6976,4.6968,4.6974,4.7001,4.7006,4.701,4.7012,4.6968,4.6968,4.6944,4.6944,4.6944]}]]